Flag for U.S.A. Weather past 2 weeks in Annapolis, Maryland, U.S.A.

Now
78 °F

Broken clouds.


Feels Like: 80 °F
Forecast: 70 / 83 °F
Wind: 3 mph from North

Location: Annapolis - United States Naval Academy

Current Time: Jul 11, 2014 at 1:08:26 PM

Latest Report: Jul 11, 2014 at 11:54 AM


Visibility: 10 mi

Pressure: 30.21 "Hg

Humidity: 69%

Dew point: 67 °F

Location of AnnapolisLocation

Historic Weather in Annapolis — Graph

°F

Annapolis temperature yesterday

Maximum temperature yesterday: 81 °F (at 1:54 PM)
Minimum temperature yesterday: 71 °F (at 3:54 AM)
Average temperature yesterday: 76 °F

Past Weeks' High & Low Weather Summary

 TemperatureHumidityPressure
High92 °F (Jul 8, 2:54 PM)94% (Jul 3, 1:54 AM)30.29 "Hg (Jul 3, 1:54 AM)
Low63 °F (Jul 5, 3:54 AM)37% (Jul 7, 3:54 PM)29.72 "Hg (Jul 8, 6:54 PM)
Average78 °F68%30.01 "Hg
* Reported Jun 26 11:54 AM — Jul 11 11:54 AM, Annapolis, Weather by CustomWeather, © 2014

Note: Actual official high and low records may vary slightly from our data, if they occured in-between our weather recording intervals... More about our weather records

Advertising

Annapolis weather history for previous 24 hours

 ConditionsComfort  
Time TempWeatherWind HumidityBarometerVisibility
11:54 AM
Jul 11
78 °FBroken clouds.3 mph69%30.21 "Hg10 mi
10:54 AM76 °FOvercast.5 mph74%30.21 "Hg9 mi
9:54 AM74 °FOvercast.8 mph82%30.20 "Hg9 mi
8:54 AM73 °FOvercast.7 mph84%30.19 "Hg9 mi
7:54 AM72 °FPartly sunny.7 mph84%30.17 "Hg9 mi
6:54 AM71 °FPartly sunny.6 mph87%30.16 "Hg9 mi
5:54 AM71 °FClear.6 mph84%30.14 "Hg10 mi
4:54 AM71 °FClear.7 mph90%30.13 "Hg10 mi
3:54 AM73 °FClear.3 mph88%30.12 "Hg9 mi
3:01 AM73 °FPassing clouds.No wind88%30.11 "Hg8 mi
1:54 AM73 °FPassing clouds.5 mph88%30.11 "Hg9 mi
12:54 AM73 °FPassing clouds.3 mph84%30.13 "Hg10 mi
11:54 PM
Jul 10
74 °FPassing clouds.No wind85%30.11 "Hg10 mi
10:54 PM74 °FLight rain. Passing clouds.5 mph88%30.12 "Hg9 mi
9:54 PM74 °FLight rain. Passing clouds.5 mph82%30.10 "Hg9 mi
8:54 PM75 °FSunny.No wind76%30.11 "Hg10 mi
7:54 PM76 °FSunny.6 mph74%30.08 "Hg10 mi
6:54 PM77 °FSunny.8 mph74%30.05 "Hg10 mi
5:54 PM78 °FSunny.12 mph71%30.05 "Hg10 mi
4:54 PM80 °FPassing clouds.9 mph71%30.05 "Hg10 mi
3:54 PM80 °FOvercast.9 mph74%30.06 "Hg10 mi
2:54 PM81 °FBroken clouds.5 mph72%30.06 "Hg9 mi
1:54 PM81 °FScattered clouds.3 mph72%30.07 "Hg9 mi
1:03 PM80 °FBroken clouds.8 mph74%30.07 "Hg8 mi
Weather by CustomWeather, © 2014

See weather overviewHow to use our weather pages